Location: Cheching
(60.0667°N, 164.2167°W)
Time: 01:16:36
(UTC+00:00)

DX 1 - Pass Details

Date: 01 February 2021
Orbit: 618 x 631 km, 98.5° (Epoch: 07 March)

Event Time Altitude Azimuth Distance (km) Brightness Sun altitude
Exits shadow 05:50:59 48° 94° (E) 814 ? -19.7°
Maximum altitude 05:51:08 49° 101° (E) 811 ? -19.8°
Drops below altitude 10° 05:55:20 10° 177° (S) 1,986 ? -20.3°
Sets 05:57:34 0° 183° (S) 2,887 ? -20.6°
